Regional Weather Roundup
Issued by NWS

Home | Current Version | Previous Version | Text Only | Print | Product List | Glossary Off
Versions: 1 2 3 4 5 6 7 8 9 10 11 12 13 14 15 16 17 18 19 20 21 22 23 24 25 26 27 28 29 30 31 32 33 34 35 36 37 38 39 40 41 42 43 44 45 46 47 48 49 50

000
ASUS43 KDTX 241601
RWRMI
MICHIGAN HOURLY REGIONAL WEATHER ROUNDUP
NATIONAL WEATHER SERVICE DETROIT/PONTIAC MI
1100 AM EST FRI FEB 24 2017

NOTE: "FAIR" INDICATES FEW OR NO CLOUDS BELOW 12,000 FEET WITH NO
SIGNIFICANT WEATHER AND/OR OBSTRUCTION TO VISIBILITY.

MIZ047>049-052>055-059>063-066>070-074>076-081>083-241700-
SOUTHEAST LOWER MICHIGAN

CITY           SKY/WX    TMP DP  RH WIND       PRES   REMARKS
ADRIAN         MOSUNNY   52  52 100 S8        29.56F
ALMA           CLOUDY    35  35  98 NE9       29.61S WCI  28
ANN ARBOR      PTSUNNY   50  49  96 SE7       29.55F
BAD AXE        LGT SNOW  36  36  98 E9G17     29.65R WCI  29
CARO           LGT RAIN  38  37  99 E13       29.54F WCI  30
DETROIT CITY   CLOUDY    46  46 100 E5        29.61F FOG
DETROIT        CLOUDY    50  48  93 SE7       29.59F FOG
FLINT          FOG       40  40 100 E12       29.53F VSB 3/4 WCI  33
GROSSE ILE     CLOUDY    45  43  93 SE5       29.60F FOG
HILLSDALE      CLOUDY    54  52  94 S10       29.53R
HOWELL         CLOUDY    45  44  95 CALM      29.53F FOG

CITY           SKY/WX    TMP DP  RH WIND       PRES   REMARKS
JACKSON        PTSUNNY   53  51  93 S14G20    29.53F
LAMBERTVILLE   CLOUDY    60  58  94 S6        29.57F
LANSING        FOG       41  39  93 CALM      29.58R VSB 1
LAPEER         LGT RAIN  40  40  99 E9        29.57F VSB 1/2 WCI  34
MASON          CLOUDY    46  46 100 CALM      29.56R FOG
MONROE         CLOUDY    49  49 100 SE5       29.58F FOG
PONTIAC        FOG       43  42  97 SE12      29.54F VSB 1/4
PORT HOPE        N/A     37  36  96 E23       29.61F WCI  26
PORT HURON     FOG       43  43 100 CALM      29.63F VSB 1/4
TRI CITIES     CLOUDY    37  37 100 NE10      29.61F WCI  30
MIDLAND        CLOUDY    37  35  93 NE9G16    29.62S WCI  30
TROY           FOG       44  42  95 E6        29.61F VSB 1/4
SAGINAW HB     CLOUDY    37  36  93 E8        29.56F WCI  31
$$
MIZ043>046-050>051-056>058-064>065-071>073-077>080-241700-
SOUTHWEST LOWER MICHIGAN

CITY           SKY/WX    TMP DP  RH WIND       PRES   REMARKS
BATTLE CREEK   CLOUDY    50  48  93 NE7       29.53F FOG
BENTON HARBOR  CLOUDY    54  50  86 E3        29.48F FOG
BIG RAPIDS     CLOUDY    35  33  92 E10G16    29.59F WCI  28
COLDWATER      PTSUNNY   62  56  82 S6G17     29.53R
FREMONT        CLOUDY    34  34  99 E14       29.55F WCI  25
HOLLAND        CLOUDY    39  36  89 E10       29.52F WCI  32
GRAND RAPIDS   CLOUDY    36  34  92 E13       29.56R WCI  27
IONIA          LGT RAIN  35  35  98 NE10      29.58R WCI  27
KALAMAZOO      CLOUDY    55  51  86 E3        29.52F FOG
LUDINGTON      CLOUDY    32  32 100 NE7       29.59F FOG     WCI  26
MARSHALL       CLOUDY    56  55  96 S5        29.53R
MOUNT PLEASANT CLOUDY    34  33  97 NE7       29.61F WCI  28
MUSKEGON       CLOUDY    36  34  92 E10       29.54F FOG     WCI  28
SOUTH HAVEN    CLOUDY    47  47  99 E7        29.49F FOG
$$
MIZ016>042-241700-
NORTHERN LOWER MICHIGAN

CITY           SKY/WX    TMP DP  RH WIND       PRES   REMARKS
ALPENA         TSTM      34  34 100 NE10      29.72F FOG     WCI  26
BEAVER ISLAND  SNOW      27  26  96 NE15G23   29.73F VSB 1/2 WCI  15
BELLAIRE       LGT SNOW  32  31  96 N5        29.70R WCI  27
CADILLAC       CLOUDY    32  32  98 CALM      29.62R
CHARLEVOIX     LGT SNOW  30  29  99 N20       29.74F WCI  17
FRANKFORT      LGT SNOW  32  30  94 NE7       29.64F WCI  25
GAYLORD        LGT RAIN  34  30  85 E8        29.64F WCI  27
GRAYLING       DRIZZLE   33  32  95 E5        29.66S WCI  29
HARBOR SPRINGS LGT SNOW  31  30  96 NE14      29.70S VSB 1   WCI  21
HOUGHTON LAKE  CLOUDY    33  32  96 E13       29.62S WCI  24
MANISTEE       FLURRIES  32  30  92 NE16      29.61F WCI  21
OSCODA         LGT SNOW  36  35  96 NE5       29.72R WCI  32
PELLSTON       HVY SNOW  31  28  89 NE9       29.76R VSB 1/4 WCI  23
ROGERS CITY    SNOW      33  32  97 E10G26    29.74F VSB 1/4 WCI  24
TRAVERSE CITY  LGT RAIN  32  32 100 N10       29.68R FOG     WCI  24
$$
MIZ007>008-015-241700-
EASTERN UPPER MICHIGAN

CITY           SKY/WX    TMP DP  RH WIND       PRES   REMARKS
KINROSS        LGT SNOW  27  24  89 NE13      29.80S VSB 3/4 WCI  16
MACKINAC ISLAN SNOW      28  28 100 NE13G20   29.76F VSB 1/2 WCI  18
NEWBERRY       LGT SNOW  23  23  97 N15G23    29.74F WCI  10
S. S. MARIE    LGT SNOW  29  23  78 N7        29.84R VSB 1   WCI  22
MUNISING         N/A     27  24  89 NE22      29.81F WCI  13
$$
MIZ004>006-011>014-085-241700-
CENTRAL UPPER MICHIGAN

CITY           SKY/WX    TMP DP  RH WIND       PRES   REMARKS
MANISTIQUE     LGT SNOW  26  25  96 N14G22    29.75F VSB 1   WCI  14
ESCANABA       LGT SNOW  27  23  85 N12G24    29.76F FOG     WCI  17
MENOMINEE      LGT SNOW  28  23  81 NE22G31   29.71F WCI  14
SAWYER-GWINN   LGT SNOW  23  21  93 NE22G28   29.78F WCI   8
$$
MIZ001>003-009>011-084-241700-
WESTERN UPPER MICHIGAN

CITY           SKY/WX    TMP DP  RH WIND       PRES   REMARKS
IRON MOUNTAIN  LGT SNOW  23  16  74 N15       29.75F WCI  10
HOUGHTON       LGT SNOW  19  11  70 NE12      29.88F WCI   7
COPPER HARBOR    N/A     21  16  81 E17       29.94F WCI   7
IRONWOOD       LGT SNOW  22  18  85 NE8G20    29.85F FOG     WCI  12
$$

ABBREVIATIONS USED IN REMARKS
   TC - TEMPERATURE IN CELSIUS
  WCI - WIND CHILL INDEX
   HX - HEAT INDEX
  VSB - VISIBILITY




USA.gov is the U.S. government's official web portal to all federal, state and local government web resources and services.